Location: Unspecified
(48.2082°N, 0.0000°E)
Time: 22:27:23
(UTC+00:00)

Transit 4A - Pass Details

Date: 24 June 2019
Orbit: 867 x 978 km, 66.8° (Epoch: 21 October)

Event Time Altitude Azimuth Distance (km) Brightness Sun altitude
Rises 14:44:55 0° 325° (NW) 3,688 11.1 49.5°
Reaches altitude 10° 14:47:47 10° 335° (NNW) 2,736 10.5 49.1°
Maximum altitude 14:53:33 34° 39° (NE) 1,543 9.1 48.2°
Drops below altitude 10° 14:59:14 10° 103° (ESE) 2,688 10.1 47.3°
Sets 15:02:01 0° 113° (ESE) 3,616 10.7 46.8°
